Weather History for Smyrna, TN

Change the Weather History Date:

Friday, May 24, 2013

  Actual Average Record
Temperature  
Mean Temperature 62 °F -  
Max Temperature 72 °F 75 °F 92 °F (2012)
Min Temperature 52 °F 60 °F 50 °F (2006)
Degree Days  
Heating Degree Days 3    
Growing Degree Days 12 (Base 50)    
Moisture  
Dew Point 49 °F    
Average Humidity 62    
Maximum Humidity 86    
Minimum Humidity 39    
Precipitation  
Precipitation 0.00 in - - ()
Sea Level Pressure  
Sea Level Pressure 30.28 in    
Wind  
Wind Speed 11 mph (North)    
Max Wind Speed 21 mph    
Max Gust Speed 17 mph    
Visibility 10 miles    
Events      
Averages and records for this station are not official NWS values.
T = Trace of Precipitation, MM = Missing Value Source: NWS Daily Summary

Daily Weather History Graph

Daily Weather History Graph

Search for Another Location

Airport:

Trip Planner

Search our weather history database for the weather conditions in past years. The results will help you decide how hot, cold, wet, or windy it might be!

Date:

Astronomy

May. 24, 2013 Rise Set
Actual Time 5:34 AM CDT 7:52 PM CDT
Civil Twilight 5:04 AM CDT 8:21 PM CDT
Nautical Twilight 4:29 AM CDT 8:57 PM CDT
Astronomical Twilight 3:49 AM CDT 9:36 PM CDT
Moon 7:34 PM CDT (5/24) 5:04 AM CDT (5/24)
Length of Visible Light 15h 16m
Length of Day
14h 18m
Full, 100% of the Moon is Illuminated
May 24
Full
May 24
Full
May 31
Last Quarter
Jun 8
New
Jun 16
First Quarter

Hourly Weather History & Observations

Time (CDT) Temp. Dew Point Humidity Pressure Visibility Wind Dir Wind Speed Gust Speed Precip Events Conditions
12:56 AM 63.0 °F 56.8 °F 80% 30.12 in 10.0 mi NNW 12.7 mph - N/A   Mostly Cloudy
1:25 AM 62.6 °F 57.2 °F 82% 30.11 in 10.0 mi North 12.7 mph - N/A   Mostly Cloudy
1:56 AM 61.0 °F 54.9 °F 80% 30.14 in 10.0 mi North 20.7 mph - N/A   Overcast
2:56 AM 59.0 °F 50.9 °F 74% 30.17 in 10.0 mi North 11.5 mph - N/A   Overcast
3:56 AM 57.9 °F 50.0 °F 75% 30.20 in 10.0 mi North 13.8 mph - N/A   Overcast
4:56 AM 56.8 °F 47.8 °F 72% 30.21 in 10.0 mi North 15.0 mph - N/A   Overcast
5:56 AM 56.8 °F 47.8 °F 72% 30.24 in 10.0 mi North 10.4 mph - N/A   Overcast
6:56 AM 56.8 °F 47.8 °F 72% 30.27 in 10.0 mi North 11.5 mph - N/A   Overcast
7:56 AM 59.0 °F 47.8 °F 66% 30.30 in 10.0 mi NNE 6.9 mph - N/A   Mostly Cloudy
8:56 AM 61.0 °F 47.8 °F 62% 30.33 in 10.0 mi North 5.8 mph - N/A   Mostly Cloudy
9:56 AM 63.9 °F 47.8 °F 56% 30.33 in 10.0 mi North 11.5 mph - N/A   Mostly Cloudy
10:56 AM 63.9 °F 46.9 °F 54% 30.35 in 10.0 mi North 10.4 mph - N/A   Scattered Clouds
11:56 AM 66.9 °F 46.9 °F 49% 30.34 in 10.0 mi North 8.1 mph - N/A   Partly Cloudy
12:56 PM 68.0 °F 47.8 °F 48% 30.33 in 10.0 mi North 10.4 mph - N/A   Clear
1:56 PM 68.9 °F 47.8 °F 47% 30.33 in 10.0 mi NNW 9.2 mph - N/A   Partly Cloudy
2:56 PM 70.0 °F 47.8 °F 45% 30.34 in 10.0 mi North 9.2 mph - N/A   Clear
3:56 PM 70.9 °F 46.9 °F 42% 30.32 in 10.0 mi North 11.5 mph 17.3 mph N/A   Clear
4:56 PM 70.9 °F 45.9 °F 41% 30.31 in 10.0 mi North 9.2 mph - N/A   Clear
5:56 PM 70.9 °F 45.0 °F 39% 30.30 in 10.0 mi North 9.2 mph - N/A   Clear
6:56 PM 68.9 °F 45.0 °F 42% 30.30 in 10.0 mi North 8.1 mph - N/A   Clear
7:56 PM 65.8 °F 45.9 °F 48% 30.29 in 10.0 mi NE 4.6 mph - N/A   Clear
8:56 PM 56.8 °F 48.9 °F 75% 30.30 in 10.0 mi Calm Calm - N/A   Clear
9:56 PM 57.9 °F 47.8 °F 69% 30.32 in 10.0 mi Calm Calm - N/A   Clear
10:56 PM 54.9 °F 47.8 °F 77% 30.34 in 10.0 mi Calm Calm - N/A   Clear
11:56 PM 52.9 °F 48.9 °F 86% 30.35 in 10.0 mi Calm Calm - N/A   Clear